Time,TemperatureF,DewpointF,PressureIn,WindDirection,WindDirectionDegrees,WindSpeedMPH,WindSpeedGustMPH,Humidity,HourlyPrecipIn,Conditions,Clouds,dailyrainin,SoftwareType,DateUTC
2013-02-24 00:00:00,71.3,68.9,29.92,SSE,160,0.0,6.0,92,0.00,,SCT250,0.00,VWS V14.01,2013-02-24 05:00:00,
2013-02-24 00:01:00,71.3,68.9,29.92,SSE,160,0.0,0.0,92,0.00,,SCT250,0.00,VWS V14.01,2013-02-24 05:01:00,
2013-02-24 00:06:00,71.1,68.7,29.92,SSE,161,0.0,0.0,92,0.00,,SCT250,0.00,VWS V14.01,2013-02-24 05:06:00,
2013-02-24 00:12:00,71.0,68.6,29.92,SSE,161,0.0,2.0,92,0.00,,SCT250,0.00,VWS V14.01,2013-02-24 05:12:00,
2013-02-24 00:17:00,70.9,68.8,29.92,SSE,168,0.0,6.0,93,0.00,,SCT250,0.00,VWS V14.01,2013-02-24 05:17:00,
2013-02-24 00:22:00,71.0,68.9,29.92,SW,228,2.0,2.0,93,0.00,,SCT250,0.00,VWS V14.01,2013-02-24 05:22:00,
2013-02-24 00:27:00,71.0,68.9,29.92,SSW,205,0.0,6.0,93,0.00,,SCT250,0.00,VWS V14.01,2013-02-24 05:27:00,
2013-02-24 00:32:00,70.9,68.8,29.92,South,191,0.0,6.0,93,0.00,,SCT250,0.00,VWS V14.01,2013-02-24 05:32:00,
2013-02-24 00:37:00,70.9,68.8,29.92,South,190,2.0,4.0,93,0.00,,SCT250,0.00,VWS V14.01,2013-02-24 05:37:00,
2013-02-24 00:42:00,70.8,68.7,29.92,SW,226,0.0,4.0,93,0.00,,SCT250,0.00,VWS V14.01,2013-02-24 05:42:00,
2013-02-24 00:47:00,70.7,68.6,29.92,SSW,208,0.0,6.0,93,0.00,,SCT250,0.00,VWS V14.01,2013-02-24 05:47:00,
2013-02-24 00:52:00,70.6,68.5,29.92,SSW,208,0.0,2.0,93,0.00,,SCT250,0.00,VWS V14.01,2013-02-24 05:52:00,
2013-02-24 00:58:00,70.5,68.4,29.92,SSW,208,0.0,0.0,93,0.00,,SCT250,0.00,VWS V14.01,2013-02-24 05:58:00,
2013-02-24 01:03:00,70.4,68.6,29.92,SSW,208,0.0,2.0,94,0.00,,SCT250,0.00,VWS V14.01,2013-02-24 06:03:00,
2013-02-24 01:08:00,70.3,68.5,29.92,SSW,195,0.0,4.0,94,0.00,,SCT250,0.00,VWS V14.01,2013-02-24 06:08:00,
2013-02-24 01:13:00,70.2,68.4,29.91,SW,220,0.0,4.0,94,0.00,,SCT250,0.00,VWS V14.01,2013-02-24 06:13:00,
2013-02-24 01:18:00,70.0,68.2,29.91,SW,217,0.0,2.0,94,0.00,,SCT250,0.00,VWS V14.01,2013-02-24 06:18:00,
2013-02-24 01:23:00,69.9,68.1,29.91,South,179,0.0,4.0,94,0.00,,SCT250,0.00,VWS V14.01,2013-02-24 06:23:00,
2013-02-24 01:28:00,69.8,68.0,29.91,SSW,209,4.0,10.0,94,0.00,,SCT250,0.00,VWS V14.01,2013-02-24 06:28:00,
2013-02-24 01:33:00,69.7,67.9,29.91,WSW,255,2.0,4.0,94,0.00,,SCT250,0.00,VWS V14.01,2013-02-24 06:33:00,
2013-02-24 01:38:00,69.6,67.8,29.91,SSW,213,0.0,2.0,94,0.00,,SCT250,0.00,VWS V14.01,2013-02-24 06:38:00,
2013-02-24 01:43:00,69.5,67.7,29.91,SW,230,0.0,4.0,94,0.00,,SCT250,0.00,VWS V14.01,2013-02-24 06:43:00,
2013-02-24 01:49:00,69.4,67.6,29.91,SSW,212,0.0,4.0,94,0.00,,SCT250,0.00,VWS V14.01,2013-02-24 06:49:00,
2013-02-24 01:54:00,69.3,67.5,29.91,SW,214,0.0,4.0,94,0.00,,SCT250,0.00,VWS V14.01,2013-02-24 06:54:00,
2013-02-24 01:59:00,69.2,67.4,29.91,SW,217,2.0,6.0,94,0.00,,SCT250,0.00,VWS V14.01,2013-02-24 06:59:00,
2013-02-24 02:04:00,69.1,67.3,29.90,SSW,212,0.0,2.0,94,0.00,,,0.00,VWS V14.01,2013-02-24 07:04:00,
2013-02-24 02:09:00,69.0,67.2,29.91,SSW,212,0.0,4.0,94,0.00,,,0.00,VWS V14.01,2013-02-24 07:09:00,
2013-02-24 02:14:00,68.9,67.1,29.91,SSW,199,2.0,8.0,94,0.00,,,0.00,VWS V14.01,2013-02-24 07:14:00,
2013-02-24 02:19:00,68.7,66.9,29.90,SSW,202,0.0,2.0,94,0.00,,,0.00,VWS V14.01,2013-02-24 07:19:00,
2013-02-24 02:24:00,68.7,67.2,29.90,West,269,2.0,8.0,95,0.00,,,0.00,VWS V14.01,2013-02-24 07:24:00,
2013-02-24 02:30:00,68.6,67.1,29.90,West,269,0.0,0.0,95,0.00,,,0.00,VWS V14.01,2013-02-24 07:30:00,
2013-02-24 02:35:00,68.5,67.0,29.90,WSW,244,0.0,0.0,95,0.00,,,0.00,VWS V14.01,2013-02-24 07:35:00,
2013-02-24 02:40:00,68.4,66.9,29.90,SSW,207,0.0,0.0,95,0.00,,,0.00,VWS V14.01,2013-02-24 07:40:00,
2013-02-24 02:45:00,68.3,66.8,29.90,SSW,207,0.0,0.0,95,0.00,,,0.00,VWS V14.01,2013-02-24 07:45:00,
2013-02-24 02:50:00,68.2,66.7,29.89,SSW,205,0.0,2.0,95,0.00,,,0.00,VWS V14.01,2013-02-24 07:50:00,
2013-02-24 02:55:00,68.2,67.0,29.89,SSW,201,0.0,0.0,96,0.00,,,0.00,VWS V14.01,2013-02-24 07:55:00,
2013-02-24 03:00:00,68.2,67.0,29.90,SW,230,0.0,2.0,96,0.00,,,0.00,VWS V14.01,2013-02-24 08:00:00,
2013-02-24 03:05:00,68.1,66.6,29.89,SSW,211,2.0,2.0,95,0.00,,,0.00,VWS V14.01,2013-02-24 08:05:00,
2013-02-24 03:10:00,68.1,66.9,29.90,SSW,207,0.0,4.0,96,0.00,,,0.00,VWS V14.01,2013-02-24 08:10:00,
2013-02-24 03:15:00,68.1,66.6,29.90,SSW,209,0.0,2.0,95,0.00,,,0.00,VWS V14.01,2013-02-24 08:15:00,
2013-02-24 03:21:00,68.0,66.5,29.89,WSW,252,0.0,0.0,95,0.00,,,0.00,VWS V14.01,2013-02-24 08:21:00,
2013-02-24 03:26:00,67.9,66.4,29.89,SSW,193,2.0,8.0,95,0.00,,,0.00,VWS V14.01,2013-02-24 08:26:00,
2013-02-24 03:31:00,67.8,66.3,29.89,South,174,0.0,6.0,95,0.00,,,0.00,VWS V14.01,2013-02-24 08:31:00,
2013-02-24 03:36:00,67.7,66.5,29.88,South,170,2.0,8.0,96,0.00,,,0.00,VWS V14.01,2013-02-24 08:36:00,
2013-02-24 03:41:00,67.6,66.4,29.88,South,184,2.0,4.0,96,0.00,,,0.00,VWS V14.01,2013-02-24 08:41:00,
2013-02-24 03:46:00,67.5,66.0,29.88,SSE,165,4.0,4.0,95,0.00,,,0.00,VWS V14.01,2013-02-24 08:46:00,
2013-02-24 03:51:00,67.5,66.0,29.88,SSE,156,2.0,2.0,95,0.00,,,0.00,VWS V14.01,2013-02-24 08:51:00,
2013-02-24 03:56:00,67.4,65.9,29.88,South,172,2.0,8.0,95,0.00,,,0.00,VWS V14.01,2013-02-24 08:56:00,
2013-02-24 04:02:00,67.3,65.8,29.88,SSE,153,0.0,4.0,95,0.00,,,0.00,VWS V14.01,2013-02-24 09:02:00,
2013-02-24 04:07:00,67.2,65.7,29.87,SSE,163,6.0,10.0,95,0.00,,,0.00,VWS V14.01,2013-02-24 09:07:00,
2013-02-24 04:12:00,67.1,65.9,29.88,South,179,2.0,6.0,96,0.00,,,0.00,VWS V14.01,2013-02-24 09:12:00,
2013-02-24 04:17:00,67.0,65.5,29.88,South,182,0.0,2.0,95,0.00,,,0.00,VWS V14.01,2013-02-24 09:17:00,
2013-02-24 04:22:00,66.9,65.7,29.89,SSW,198,2.0,6.0,96,0.00,,,0.00,VWS V14.01,2013-02-24 09:22:00,
2013-02-24 04:27:00,66.8,65.6,29.89,SW,221,2.0,4.0,96,0.00,,,0.00,VWS V14.01,2013-02-24 09:27:00,
2013-02-24 04:32:00,66.8,65.6,29.89,West,274,2.0,4.0,96,0.00,,,0.00,VWS V14.01,2013-02-24 09:32:00,
2013-02-24 04:37:00,66.8,65.6,29.89,SW,220,2.0,2.0,96,0.00,,,0.00,VWS V14.01,2013-02-24 09:37:00,
2013-02-24 04:42:00,66.8,65.6,29.89,WSW,241,0.0,4.0,96,0.00,,,0.00,VWS V14.01,2013-02-24 09:42:00,
2013-02-24 04:47:00,66.9,65.7,29.89,SSW,201,2.0,12.0,96,0.00,,,0.00,VWS V14.01,2013-02-24 09:47:00,
2013-02-24 04:53:00,66.9,65.7,29.89,SW,222,6.0,6.0,96,0.00,,,0.00,VWS V14.01,2013-02-24 09:53:00,
2013-02-24 04:58:00,67.0,65.8,29.90,NNW,345,0.0,4.0,96,0.00,,,0.00,VWS V14.01,2013-02-24 09:58:00,
2013-02-24 05:03:00,67.0,65.8,29.90,West,280,2.0,6.0,96,0.00,,,0.00,VWS V14.01,2013-02-24 10:03:00,
2013-02-24 05:08:00,67.0,65.8,29.90,WSW,255,0.0,4.0,96,0.00,,,0.00,VWS V14.01,2013-02-24 10:08:00,
2013-02-24 05:13:00,67.1,65.9,29.91,West,274,8.0,8.0,96,0.00,,,0.00,VWS V14.01,2013-02-24 10:13:00,
2013-02-24 05:18:00,67.2,66.0,29.90,SSW,201,2.0,4.0,96,0.00,,,0.00,VWS V14.01,2013-02-24 10:18:00,
2013-02-24 05:23:00,67.2,66.0,29.90,WNW,286,2.0,10.0,96,0.00,,,0.00,VWS V14.01,2013-02-24 10:23:00,
2013-02-24 05:28:00,67.3,66.1,29.91,NW,304,4.0,8.0,96,0.00,,,0.00,VWS V14.01,2013-02-24 10:28:00,
2013-02-24 05:33:00,67.4,66.2,29.91,SW,230,2.0,8.0,96,0.00,,,0.00,VWS V14.01,2013-02-24 10:33:00,
2013-02-24 05:38:00,67.4,66.2,29.91,WNW,299,2.0,6.0,96,0.00,,,0.00,VWS V14.01,2013-02-24 10:38:00,
2013-02-24 05:44:00,67.5,66.0,29.91,NNW,338,2.0,8.0,95,0.00,,,0.00,VWS V14.01,2013-02-24 10:44:00,
2013-02-24 05:49:00,67.6,66.1,29.92,WNW,291,6.0,8.0,95,0.00,,,0.00,VWS V14.01,2013-02-24 10:49:00,
2013-02-24 05:54:00,67.7,66.2,29.92,WNW,291,0.0,10.0,95,0.00,,,0.00,VWS V14.01,2013-02-24 10:54:00,
2013-02-24 05:59:00,67.9,66.4,29.92,WNW,283,2.0,12.0,95,0.00,,,0.00,VWS V14.01,2013-02-24 10:59:00,
2013-02-24 06:04:00,68.0,66.5,29.92,West,268,2.0,8.0,95,0.00,,,0.00,VWS V14.01,2013-02-24 11:04:00,
2013-02-24 06:09:00,68.1,66.6,29.92,West,281,2.0,6.0,95,0.00,,,0.00,VWS V14.01,2013-02-24 11:09:00,
2013-02-24 06:14:00,68.1,66.6,29.93,NW,309,0.0,6.0,95,0.00,,,0.00,VWS V14.01,2013-02-24 11:14:00,
2013-02-24 06:19:00,68.2,66.7,29.93,South,182,4.0,6.0,95,0.00,,,0.00,VWS V14.01,2013-02-24 11:19:00,
2013-02-24 06:24:00,68.3,66.8,29.92,WNW,288,2.0,6.0,95,0.00,,,0.00,VWS V14.01,2013-02-24 11:24:00,
2013-02-24 06:29:00,68.3,66.8,29.93,WSW,241,0.0,8.0,95,0.00,,,0.00,VWS V14.01,2013-02-24 11:29:00,
2013-02-24 06:34:00,68.3,66.8,29.93,NW,323,0.0,8.0,95,0.00,,,0.00,VWS V14.01,2013-02-24 11:34:00,
2013-02-24 06:39:00,68.4,66.9,29.93,NW,309,0.0,4.0,95,0.00,,,0.00,VWS V14.01,2013-02-24 11:39:00,
2013-02-24 06:45:00,68.5,67.0,29.93,WSW,244,2.0,4.0,95,0.00,,,0.00,VWS V14.01,2013-02-24 11:45:00,
2013-02-24 06:50:00,68.5,67.0,29.93,WSW,249,0.0,2.0,95,0.00,,,0.00,VWS V14.01,2013-02-24 11:50:00,
2013-02-24 06:55:00,68.6,67.1,29.93,SW,232,2.0,2.0,95,0.00,,,0.00,VWS V14.01,2013-02-24 11:55:00,
2013-02-24 07:00:00,68.7,67.2,29.93,SW,217,4.0,6.0,95,0.00,,,0.00,VWS V14.01,2013-02-24 12:00:00,
2013-02-24 07:05:00,68.8,67.3,29.93,South,187,2.0,6.0,95,0.00,,,0.00,VWS V14.01,2013-02-24 12:05:00,
2013-02-24 07:10:00,68.8,67.3,29.93,SW,222,4.0,4.0,95,0.00,,,0.00,VWS V14.01,2013-02-24 12:10:00,
2013-02-24 07:15:00,68.9,67.4,29.93,WSW,258,4.0,4.0,95,0.00,,,0.00,VWS V14.01,2013-02-24 12:15:00,
2013-02-24 07:20:00,69.0,67.5,29.93,WSW,251,0.0,2.0,95,0.00,,,0.00,VWS V14.01,2013-02-24 12:20:00,
2013-02-24 07:25:00,69.1,67.6,29.92,SW,217,4.0,4.0,95,0.00,,,0.00,VWS V14.01,2013-02-24 12:25:00,
2013-02-24 07:31:00,69.2,67.7,29.92,SSE,152,4.0,4.0,95,0.00,,,0.00,VWS V14.01,2013-02-24 12:31:00,
2013-02-24 07:36:00,69.2,67.7,29.93,West,271,2.0,4.0,95,0.00,,,0.00,VWS V14.01,2013-02-24 12:36:00,
2013-02-24 07:41:00,69.3,67.8,29.93,WSW,244,4.0,10.0,95,0.00,,,0.00,VWS V14.01,2013-02-24 12:41:00,
2013-02-24 07:46:00,69.3,67.8,29.93,NW,317,0.0,4.0,95,0.00,,,0.00,VWS V14.01,2013-02-24 12:46:00,
2013-02-24 07:51:00,69.4,67.9,29.94,SW,232,2.0,6.0,95,0.00,,,0.00,VWS V14.01,2013-02-24 12:51:00,
2013-02-24 07:56:00,69.5,68.0,29.94,SSW,201,0.0,8.0,95,0.00,,,0.00,VWS V14.01,2013-02-24 12:56:00,
2013-02-24 08:01:00,69.6,68.1,29.94,WNW,286,0.0,6.0,95,0.00,,,0.00,VWS V14.01,2013-02-24 13:01:00,
2013-02-24 08:06:00,69.7,68.2,29.95,WSW,255,4.0,6.0,95,0.00,,,0.00,VWS V14.01,2013-02-24 13:06:00,
2013-02-24 08:12:00,69.7,68.2,29.95,SW,217,0.0,2.0,95,0.00,,,0.00,VWS V14.01,2013-02-24 13:12:00,
2013-02-24 08:17:00,69.8,68.3,29.96,SSW,211,6.0,6.0,95,0.00,,,0.00,VWS V14.01,2013-02-24 13:17:00,
2013-02-24 08:22:00,70.0,68.5,29.96,West,277,0.0,4.0,95,0.00,,,0.00,VWS V14.01,2013-02-24 13:22:00,
2013-02-24 08:27:00,70.1,68.6,29.96,WSW,250,4.0,8.0,95,0.00,,,0.00,VWS V14.01,2013-02-24 13:27:00,
2013-02-24 08:32:00,70.2,68.7,29.96,South,190,0.0,4.0,95,0.00,,,0.00,VWS V14.01,2013-02-24 13:32:00,
2013-02-24 08:37:00,70.4,68.9,29.96,ENE,65,2.0,8.0,95,0.00,,,0.00,VWS V14.01,2013-02-24 13:37:00,
2013-02-24 08:42:00,70.5,69.0,29.96,SSW,193,6.0,6.0,95,0.00,,,0.00,VWS V14.01,2013-02-24 13:42:00,
2013-02-24 08:47:00,70.7,68.9,29.96,SSE,153,0.0,4.0,94,0.00,,,0.00,VWS V14.01,2013-02-24 13:47:00,
2013-02-24 08:52:00,70.8,69.0,29.96,West,259,6.0,8.0,94,0.00,,,0.00,VWS V14.01,2013-02-24 13:52:00,
2013-02-24 08:57:00,70.9,69.1,29.96,South,182,2.0,6.0,94,0.00,,,0.00,VWS V14.01,2013-02-24 13:57:00,
2013-02-24 09:02:00,70.9,69.1,29.96,SSW,194,0.0,8.0,94,0.00,,,0.00,VWS V14.01,2013-02-24 14:02:00,
2013-02-24 09:07:00,71.0,69.2,29.96,SW,215,2.0,4.0,94,0.00,,,0.00,VWS V14.01,2013-02-24 14:07:00,
2013-02-24 09:12:00,71.1,69.3,29.96,SSW,203,0.0,4.0,94,0.00,,,0.00,VWS V14.01,2013-02-24 14:12:00,
2013-02-24 09:17:00,71.2,69.4,29.97,West,262,0.0,4.0,94,0.00,,,0.00,VWS V14.01,2013-02-24 14:17:00,
2013-02-24 09:23:00,71.4,69.6,29.97,SW,235,4.0,4.0,94,0.00,,,0.00,VWS V14.01,2013-02-24 14:23:00,
2013-02-24 09:28:00,71.5,69.4,29.97,SW,225,0.0,8.0,93,0.00,,,0.00,VWS V14.01,2013-02-24 14:28:00,
2013-02-24 09:33:00,71.6,69.5,29.97,South,173,0.0,4.0,93,0.00,,,0.00,VWS V14.01,2013-02-24 14:33:00,
2013-02-24 09:38:00,71.8,69.7,29.96,SSE,163,2.0,6.0,93,0.00,,,0.00,VWS V14.01,2013-02-24 14:38:00,
2013-02-24 09:43:00,71.9,69.8,29.96,SE,129,4.0,4.0,93,0.00,,,0.00,VWS V14.01,2013-02-24 14:43:00,
2013-02-24 09:48:00,72.0,69.9,29.96,SW,215,0.0,6.0,93,0.00,,,0.00,VWS V14.01,2013-02-24 14:48:00,
2013-02-24 09:53:00,72.2,69.8,29.96,SW,232,0.0,6.0,92,0.00,,,0.00,VWS V14.01,2013-02-24 14:53:00,
2013-02-24 09:58:00,72.4,69.9,29.96,SSW,207,4.0,4.0,92,0.00,,,0.00,VWS V14.01,2013-02-24 14:58:00,
2013-02-24 10:03:00,72.6,69.8,29.97,SSW,213,4.0,4.0,91,0.00,,,0.00,VWS V14.01,2013-02-24 15:03:00,
2013-02-24 10:08:00,72.7,69.9,29.97,SSW,209,6.0,8.0,91,0.00,,,0.00,VWS V14.01,2013-02-24 15:08:00,
2013-02-24 10:13:00,72.9,70.1,29.97,SSW,204,2.0,8.0,91,0.00,,,0.00,VWS V14.01,2013-02-24 15:13:00,
2013-02-24 10:18:00,73.1,70.0,29.97,SSW,195,6.0,6.0,90,0.00,,,0.00,VWS V14.01,2013-02-24 15:18:00,
2013-02-24 10:24:00,73.3,70.2,29.96,SSE,154,4.0,6.0,90,0.00,,,0.00,VWS V14.01,2013-02-24 15:24:00,
2013-02-24 10:29:00,74.0,70.6,29.97,WSW,247,6.0,10.0,89,0.00,,,0.00,VWS V14.01,2013-02-24 15:29:00,
2013-02-24 10:34:00,74.6,70.5,29.97,SW,223,4.0,8.0,87,0.00,,,0.00,VWS V14.01,2013-02-24 15:34:00,
2013-02-24 10:39:00,74.7,70.6,29.96,SSE,151,2.0,8.0,87,0.00,,,0.00,VWS V14.01,2013-02-24 15:39:00,
2013-02-24 10:44:00,74.8,70.3,29.96,SSW,196,2.0,8.0,86,0.00,,,0.00,VWS V14.01,2013-02-24 15:44:00,
2013-02-24 10:49:00,75.1,70.6,29.96,WNW,293,4.0,6.0,86,0.00,,,0.00,VWS V14.01,2013-02-24 15:49:00,
2013-02-24 10:54:00,75.4,70.6,29.96,SW,225,2.0,8.0,85,0.00,,,0.00,VWS V14.01,2013-02-24 15:54:00,
2013-02-24 10:59:00,75.6,70.4,29.96,South,184,4.0,12.0,84,0.00,,,0.00,VWS V14.01,2013-02-24 15:59:00,
2013-02-24 11:04:00,75.6,70.4,29.96,SSW,207,6.0,6.0,84,0.00,,OVC021,0.00,VWS V14.01,2013-02-24 16:04:00,
2013-02-24 11:09:00,75.6,70.4,29.96,SW,218,4.0,6.0,84,0.00,,OVC021,0.00,VWS V14.01,2013-02-24 16:09:00,
2013-02-24 11:14:00,75.6,70.4,29.96,WSW,238,2.0,6.0,84,0.00,,OVC021,0.00,VWS V14.01,2013-02-24 16:14:00,
2013-02-24 11:19:00,75.6,70.8,29.97,SSW,212,0.0,6.0,85,0.00,,OVC015,0.00,VWS V14.01,2013-02-24 16:19:00,
2013-02-24 11:24:00,75.5,70.7,29.97,South,190,2.0,10.0,85,0.00,,OVC015,0.00,VWS V14.01,2013-02-24 16:24:00,
2013-02-24 11:29:00,75.5,70.3,29.96,SW,221,2.0,12.0,84,0.00,,OVC015,0.00,VWS V14.01,2013-02-24 16:29:00,
2013-02-24 11:34:00,75.3,70.1,29.96,WSW,253,0.0,10.0,84,0.00,,OVC014,0.00,VWS V14.01,2013-02-24 16:34:00,
2013-02-24 11:40:00,75.3,70.1,29.95,South,190,0.0,0.0,84,0.00,,OVC014,0.00,VWS V14.01,2013-02-24 16:40:00,
2013-02-24 11:45:00,75.3,70.1,29.96,South,174,0.0,0.0,84,0.00,,OVC014,0.00,VWS V14.01,2013-02-24 16:45:00,
2013-02-24 11:50:00,75.3,70.1,29.95,SSE,159,0.0,0.0,84,0.00,,OVC014,0.00,VWS V14.01,2013-02-24 16:50:00,
2013-02-24 11:55:00,75.3,70.5,29.96,WSW,255,2.0,4.0,85,0.00,,OVC014,0.00,VWS V14.01,2013-02-24 16:55:00,
2013-02-24 12:00:00,74.9,70.4,29.96,WNW,294,2.0,4.0,86,0.00,,OVC014,0.00,VWS V14.01,2013-02-24 17:00:00,
2013-02-24 12:05:00,74.2,70.1,29.96,NNW,327,4.0,4.0,87,0.00,,OVC075,0.00,VWS V14.01,2013-02-24 17:05:00,
2013-02-24 12:10:00,73.6,70.2,29.96,WNW,302,2.0,4.0,89,0.01,,OVC075,0.01,VWS V14.01,2013-02-24 17:10:00,
2013-02-24 12:15:00,73.0,69.9,29.96,NW,315,0.0,4.0,90,0.04,,OVC075,0.04,VWS V14.01,2013-02-24 17:15:00,
2013-02-24 12:20:00,72.5,69.7,29.95,NW,309,4.0,4.0,91,0.07,,OVC075,0.07,VWS V14.01,2013-02-24 17:20:00,
2013-02-24 12:26:00,72.2,70.1,29.96,NW,309,0.0,2.0,93,0.10,,OVC075,0.10,VWS V14.01,2013-02-24 17:26:00,
2013-02-24 12:31:00,71.9,69.8,29.96,NW,309,2.0,4.0,93,0.13,,OVC075,0.13,VWS V14.01,2013-02-24 17:31:00,
2013-02-24 12:36:00,71.5,69.7,29.96,NW,326,2.0,4.0,94,0.22,,OVC075,0.22,VWS V14.01,2013-02-24 17:36:00,
2013-02-24 12:41:00,71.5,70.0,29.95,NW,326,0.0,2.0,95,0.22,,OVC075,0.22,VWS V14.01,2013-02-24 17:41:00,
2013-02-24 12:46:00,71.6,70.1,29.95,NW,326,4.0,4.0,95,0.22,,OVC075,0.22,VWS V14.01,2013-02-24 17:46:00,
2013-02-24 12:51:00,72.0,70.8,29.95,NW,326,0.0,4.0,96,0.22,,OVC075,0.22,VWS V14.01,2013-02-24 17:51:00,
2013-02-24 12:56:00,72.1,70.9,29.96,WNW,286,0.0,2.0,96,0.22,,OVC075,0.22,VWS V14.01,2013-02-24 17:56:00,
2013-02-24 13:01:00,72.4,70.9,29.95,WNW,301,2.0,4.0,95,0.22,,OVC036,0.22,VWS V14.01,2013-02-24 18:01:00,
2013-02-24 13:06:00,72.5,71.0,29.95,WNW,301,0.0,0.0,95,0.22,,OVC036,0.22,VWS V14.01,2013-02-24 18:06:00,
2013-02-24 13:12:00,72.7,71.2,29.95,WNW,301,0.0,2.0,95,0.22,,OVC036,0.22,VWS V14.01,2013-02-24 18:12:00,
2013-02-24 13:17:00,72.9,71.4,29.95,WNW,301,2.0,4.0,95,0.19,,OVC027,0.22,VWS V14.01,2013-02-24 18:17:00,
2013-02-24 13:22:00,73.0,71.2,29.95,WNW,294,6.0,6.0,94,0.15,,OVC027,0.22,VWS V14.01,2013-02-24 18:22:00,
2013-02-24 13:27:00,73.1,71.3,29.95,West,265,0.0,6.0,94,0.12,,OVC027,0.22,VWS V14.01,2013-02-24 18:27:00,
2013-02-24 13:32:00,73.3,71.2,29.94,NW,321,0.0,6.0,93,0.09,,OVC027,0.22,VWS V14.01,2013-02-24 18:32:00,
2013-02-24 13:37:00,73.6,71.8,29.94,WNW,283,0.0,2.0,94,0.02,,OVC027,0.22,VWS V14.01,2013-02-24 18:37:00,
2013-02-24 13:42:00,73.8,71.7,29.94,WNW,302,4.0,4.0,93,0.00,,OVC027,0.22,VWS V14.01,2013-02-24 18:42:00,
2013-02-24 13:47:00,73.9,71.1,29.94,NW,310,4.0,10.0,91,0.00,,OVC027,0.22,VWS V14.01,2013-02-24 18:47:00,
2013-02-24 13:52:00,74.1,71.6,29.94,WNW,303,0.0,4.0,92,0.00,,OVC027,0.22,VWS V14.01,2013-02-24 18:52:00,
2013-02-24 13:57:00,74.2,71.7,29.94,West,269,4.0,4.0,92,0.00,,OVC027,0.22,VWS V14.01,2013-02-24 18:57:00,
2013-02-24 14:03:00,74.2,71.1,29.94,West,273,4.0,6.0,90,0.00,,OVC070,0.22,VWS V14.01,2013-02-24 19:03:00,
2013-02-24 14:08:00,74.3,71.2,29.93,NW,305,2.0,8.0,90,0.00,,OVC070,0.22,VWS V14.01,2013-02-24 19:08:00,
2013-02-24 14:13:00,74.4,71.6,29.93,NNW,333,2.0,6.0,91,0.00,,OVC070,0.22,VWS V14.01,2013-02-24 19:13:00,
2013-02-24 14:18:00,74.3,70.8,29.93,West,266,6.0,8.0,89,0.00,,OVC070,0.22,VWS V14.01,2013-02-24 19:18:00,
2013-02-24 14:23:00,74.3,70.5,29.93,NW,321,0.0,6.0,88,0.00,,OVC070,0.22,VWS V14.01,2013-02-24 19:23:00,
2013-02-24 14:28:00,74.4,70.6,29.93,NW,318,2.0,6.0,88,0.00,,OVC070,0.22,VWS V14.01,2013-02-24 19:28:00,
2013-02-24 14:33:00,74.4,70.6,29.93,NW,316,2.0,4.0,88,0.00,,OVC070,0.22,VWS V14.01,2013-02-24 19:33:00,
2013-02-24 14:38:00,74.4,70.3,29.94,NW,307,0.0,12.0,87,0.00,,OVC070,0.22,VWS V14.01,2013-02-24 19:38:00,
2013-02-24 14:43:00,74.3,70.2,29.94,NW,315,0.0,6.0,87,0.00,,OVC070,0.22,VWS V14.01,2013-02-24 19:43:00,
2013-02-24 14:48:00,74.2,70.4,29.93,WNW,290,2.0,4.0,88,0.00,,OVC070,0.22,VWS V14.01,2013-02-24 19:48:00,
2013-02-24 14:53:00,74.0,70.2,29.93,WNW,283,2.0,4.0,88,0.00,,OVC070,0.22,VWS V14.01,2013-02-24 19:53:00,
2013-02-24 14:59:00,73.9,70.1,29.92,WNW,283,0.0,2.0,88,0.00,,OVC070,0.22,VWS V14.01,2013-02-24 19:59:00,
2013-02-24 15:04:00,74.0,70.2,29.92,NW,306,6.0,6.0,88,0.00,,OVC070,0.22,VWS V14.01,2013-02-24 20:04:00,
2013-02-24 15:09:00,74.0,70.2,29.93,WNW,286,2.0,6.0,88,0.00,,OVC070,0.22,VWS V14.01,2013-02-24 20:09:00,
2013-02-24 15:14:00,74.0,69.9,29.93,WNW,286,0.0,6.0,87,0.00,,OVC070,0.22,VWS V14.01,2013-02-24 20:14:00,
2013-02-24 15:19:00,73.9,70.1,29.93,WNW,286,0.0,4.0,88,0.00,,OVC070,0.22,VWS V14.01,2013-02-24 20:19:00,
2013-02-24 15:24:00,73.9,69.8,29.93,WNW,286,0.0,4.0,87,0.00,,OVC070,0.22,VWS V14.01,2013-02-24 20:24:00,
2013-02-24 15:29:00,73.9,69.8,29.93,West,277,6.0,8.0,87,0.00,,OVC070,0.22,VWS V14.01,2013-02-24 20:29:00,
2013-02-24 15:34:00,74.0,69.9,29.93,WNW,282,2.0,8.0,87,0.00,,OVC070,0.22,VWS V14.01,2013-02-24 20:34:00,
2013-02-24 15:39:00,74.1,70.0,29.93,WNW,284,2.0,4.0,87,0.00,,OVC070,0.22,VWS V14.01,2013-02-24 20:39:00,
2013-02-24 15:45:00,74.3,70.2,29.93,West,278,4.0,4.0,87,0.00,,OVC070,0.22,VWS V14.01,2013-02-24 20:45:00,
2013-02-24 15:50:00,74.3,70.2,29.94,NW,312,2.0,6.0,87,0.00,,OVC070,0.22,VWS V14.01,2013-02-24 20:50:00,
2013-02-24 15:55:00,74.4,70.3,29.93,NW,326,0.0,0.0,87,0.00,,OVC070,0.22,VWS V14.01,2013-02-24 20:55:00,
2013-02-24 16:00:00,74.6,70.1,29.93,NW,326,0.0,2.0,86,0.00,,OVC070,0.22,VWS V14.01,2013-02-24 21:00:00,
2013-02-24 16:05:00,74.9,70.1,29.93,NW,323,0.0,2.0,85,0.00,,OVC200,0.22,VWS V14.01,2013-02-24 21:05:00,
2013-02-24 16:10:00,75.1,70.3,29.93,North,355,6.0,6.0,85,0.00,,OVC200,0.22,VWS V14.01,2013-02-24 21:10:00,
2013-02-24 16:15:00,74.3,69.2,29.94,NNE,24,2.0,6.0,84,0.00,,OVC200,0.22,VWS V14.01,2013-02-24 21:15:00,
2013-02-24 16:20:00,73.4,68.6,29.93,SE,124,4.0,4.0,85,0.00,,OVC200,0.22,VWS V14.01,2013-02-24 21:20:00,
2013-02-24 16:25:00,72.6,68.5,29.93,SSE,159,0.0,2.0,87,0.00,,OVC200,0.22,VWS V14.01,2013-02-24 21:25:00,
2013-02-24 16:30:00,71.9,67.8,29.93,North,355,0.0,2.0,87,0.00,,OVC200,0.22,VWS V14.01,2013-02-24 21:30:00,
2013-02-24 16:36:00,71.6,67.9,29.93,NNE,24,4.0,6.0,88,0.00,,OVC200,0.22,VWS V14.01,2013-02-24 21:36:00,
2013-02-24 16:41:00,71.2,67.1,29.93,ESE,111,0.0,4.0,87,0.00,,OVC200,0.22,VWS V14.01,2013-02-24 21:41:00,
2013-02-24 16:46:00,70.7,67.0,29.93,East,101,0.0,2.0,88,0.00,,OVC200,0.22,VWS V14.01,2013-02-24 21:46:00,
2013-02-24 16:51:00,70.5,67.1,29.93,ESE,109,2.0,4.0,89,0.00,,OVC200,0.22,VWS V14.01,2013-02-24 21:51:00,
2013-02-24 16:56:00,70.3,66.9,29.93,SE,126,2.0,4.0,89,0.00,,OVC200,0.22,VWS V14.01,2013-02-24 21:56:00,
2013-02-24 17:01:00,70.2,66.8,29.93,SE,130,2.0,6.0,89,0.00,,OVC200,0.22,VWS V14.01,2013-02-24 22:01:00,
2013-02-24 17:06:00,70.1,67.0,29.93,East,91,0.0,2.0,90,0.00,,OVC200,0.22,VWS V14.01,2013-02-24 22:06:00,
2013-02-24 17:11:00,70.0,66.9,29.93,ESE,121,0.0,0.0,90,0.00,,OVC200,0.22,VWS V14.01,2013-02-24 22:11:00,
2013-02-24 17:16:00,69.9,66.8,29.93,ENE,61,2.0,4.0,90,0.00,,OVC200,0.22,VWS V14.01,2013-02-24 22:16:00,
2013-02-24 17:22:00,69.8,66.7,29.93,ENE,61,0.0,0.0,90,0.00,,OVC200,0.22,VWS V14.01,2013-02-24 22:22:00,
2013-02-24 17:27:00,69.7,66.6,29.93,ENE,61,0.0,2.0,90,0.00,,OVC200,0.22,VWS V14.01,2013-02-24 22:27:00,
2013-02-24 17:32:00,69.5,66.4,29.93,NE,54,0.0,0.0,90,0.00,,OVC200,0.22,VWS V14.01,2013-02-24 22:32:00,
2013-02-24 17:37:00,69.4,66.7,29.93,ESE,116,0.0,0.0,91,0.00,,OVC200,0.22,VWS V14.01,2013-02-24 22:37:00,
2013-02-24 17:42:00,69.2,66.5,29.93,ESE,116,0.0,2.0,91,0.00,,OVC200,0.22,VWS V14.01,2013-02-24 22:42:00,
2013-02-24 17:47:00,69.1,66.4,29.93,SE,130,0.0,0.0,91,0.00,,OVC200,0.22,VWS V14.01,2013-02-24 22:47:00,
2013-02-24 17:52:00,69.0,66.3,29.93,SE,126,4.0,6.0,91,0.00,,OVC200,0.22,VWS V14.01,2013-02-24 22:52:00,
2013-02-24 17:57:00,68.8,66.1,29.93,East,84,2.0,4.0,91,0.00,,OVC200,0.22,VWS V14.01,2013-02-24 22:57:00,
2013-02-24 18:02:00,68.5,65.8,29.93,ESE,102,0.0,6.0,91,0.00,,OVC200,0.22,VWS V14.01,2013-02-24 23:02:00,
2013-02-24 18:07:00,68.3,65.6,29.93,ESE,102,0.0,4.0,91,0.00,,OVC200,0.22,VWS V14.01,2013-02-24 23:07:00,
2013-02-24 18:13:00,68.1,65.7,29.94,East,84,0.0,4.0,92,0.00,,OVC200,0.22,VWS V14.01,2013-02-24 23:13:00,
2013-02-24 18:18:00,68.0,65.6,29.94,East,84,0.0,0.0,92,0.00,,OVC200,0.22,VWS V14.01,2013-02-24 23:18:00,
2013-02-24 18:23:00,67.8,65.4,29.94,East,86,0.0,2.0,92,0.00,,OVC200,0.22,VWS V14.01,2013-02-24 23:23:00,
2013-02-24 18:28:00,67.6,65.2,29.94,ESE,114,0.0,6.0,92,0.00,,OVC200,0.22,VWS V14.01,2013-02-24 23:28:00,
2013-02-24 18:33:00,67.4,65.0,29.94,ENE,78,0.0,2.0,92,0.00,,OVC200,0.22,VWS V14.01,2013-02-24 23:33:00,
2013-02-24 18:38:00,67.3,64.9,29.94,East,89,0.0,4.0,92,0.00,,OVC200,0.22,VWS V14.01,2013-02-24 23:38:00,
2013-02-24 18:43:00,67.1,64.7,29.94,ESE,106,0.0,6.0,92,0.00,,OVC200,0.22,VWS V14.01,2013-02-24 23:43:00,
2013-02-24 18:48:00,67.0,64.6,29.94,ESE,106,0.0,0.0,92,0.00,,OVC200,0.22,VWS V14.01,2013-02-24 23:48:00,
2013-02-24 18:54:00,66.9,64.5,29.94,ESE,106,0.0,0.0,92,0.00,,OVC200,0.22,VWS V14.01,2013-02-24 23:54:00,
2013-02-24 18:59:00,66.8,64.7,29.94,ESE,106,0.0,0.0,93,0.00,,OVC200,0.22,VWS V14.01,2013-02-24 23:59:00,
2013-02-24 19:04:00,66.8,64.7,29.94,ESE,106,0.0,0.0,93,0.00,,OVC150,0.22,VWS V14.01,2013-02-25 00:04:00,
2013-02-24 19:09:00,66.7,64.6,29.94,ESE,106,0.0,0.0,93,0.00,,OVC150,0.22,VWS V14.01,2013-02-25 00:09:00,
2013-02-24 19:14:00,66.6,64.5,29.94,ESE,106,0.0,0.0,93,0.00,,OVC150,0.22,VWS V14.01,2013-02-25 00:14:00,
2013-02-24 19:19:00,66.5,64.4,29.95,ESE,106,0.0,0.0,93,0.00,,OVC250,0.22,VWS V14.01,2013-02-25 00:19:00,
2013-02-24 19:24:00,66.3,64.2,29.95,ESE,106,0.0,0.0,93,0.00,,OVC250,0.22,VWS V14.01,2013-02-25 00:24:00,
2013-02-24 19:29:00,66.2,64.1,29.95,ESE,106,0.0,0.0,93,0.00,,OVC250,0.22,VWS V14.01,2013-02-25 00:29:00,
2013-02-24 19:34:00,66.1,64.3,29.95,ESE,106,0.0,0.0,94,0.00,,OVC250,0.22,VWS V14.01,2013-02-25 00:34:00,
2013-02-24 19:39:00,66.0,64.2,29.96,ESE,106,0.0,0.0,94,0.00,,OVC250,0.22,VWS V14.01,2013-02-25 00:39:00,
2013-02-24 19:45:00,66.0,64.2,29.96,ESE,106,0.0,0.0,94,0.00,,OVC250,0.22,VWS V14.01,2013-02-25 00:45:00,
2013-02-24 19:50:00,65.8,64.0,29.96,ESE,106,0.0,0.0,94,0.00,,OVC250,0.22,VWS V14.01,2013-02-25 00:50:00,
2013-02-24 19:55:00,65.8,64.0,29.97,ESE,106,0.0,0.0,94,0.00,,OVC250,0.22,VWS V14.01,2013-02-25 00:55:00,
2013-02-24 20:00:00,65.7,63.9,29.97,ESE,106,0.0,0.0,94,0.00,,OVC250,0.22,VWS V14.01,2013-02-25 01:00:00,
2013-02-24 20:05:00,65.6,64.1,29.98,ESE,106,0.0,0.0,95,0.00,,OVC200,0.22,VWS V14.01,2013-02-25 01:05:00,
2013-02-24 20:10:00,65.5,64.0,29.97,ESE,106,0.0,0.0,95,0.00,,OVC200,0.22,VWS V14.01,2013-02-25 01:10:00,
2013-02-24 20:15:00,65.5,64.0,29.97,ESE,106,0.0,0.0,95,0.00,,OVC200,0.22,VWS V14.01,2013-02-25 01:15:00,
2013-02-24 20:20:00,65.4,63.9,29.97,ESE,106,0.0,0.0,95,0.00,,OVC200,0.22,VWS V14.01,2013-02-25 01:20:00,
2013-02-24 20:25:00,65.4,63.9,29.97,ESE,106,0.0,0.0,95,0.00,,OVC200,0.22,VWS V14.01,2013-02-25 01:25:00,
2013-02-24 20:30:00,65.3,63.8,29.97,ESE,106,0.0,0.0,95,0.00,,OVC200,0.22,VWS V14.01,2013-02-25 01:30:00,
2013-02-24 20:36:00,65.2,63.7,29.97,ESE,106,0.0,0.0,95,0.00,,OVC200,0.22,VWS V14.01,2013-02-25 01:36:00,
2013-02-24 20:41:00,65.2,64.0,29.97,ESE,106,0.0,0.0,96,0.00,,OVC200,0.22,VWS V14.01,2013-02-25 01:41:00,
2013-02-24 20:46:00,65.1,63.9,29.97,ESE,106,0.0,0.0,96,0.00,,OVC200,0.22,VWS V14.01,2013-02-25 01:46:00,
2013-02-24 20:51:00,65.2,64.0,29.97,ESE,106,0.0,0.0,96,0.00,,OVC200,0.22,VWS V14.01,2013-02-25 01:51:00,
2013-02-24 20:56:00,65.2,64.0,29.97,ESE,106,0.0,0.0,96,0.00,,OVC200,0.22,VWS V14.01,2013-02-25 01:56:00,
2013-02-24 21:01:00,65.2,64.0,29.97,ESE,106,0.0,0.0,96,0.00,,OVC250,0.22,VWS V14.01,2013-02-25 02:01:00,
2013-02-24 21:06:00,65.2,64.0,29.98,ESE,106,0.0,0.0,96,0.00,,OVC250,0.22,VWS V14.01,2013-02-25 02:06:00,
2013-02-24 21:11:00,65.2,64.0,29.98,ESE,106,0.0,0.0,96,0.00,,OVC250,0.22,VWS V14.01,2013-02-25 02:11:00,
2013-02-24 21:16:00,65.2,64.0,29.98,ESE,106,0.0,0.0,96,0.00,,OVC250,0.22,VWS V14.01,2013-02-25 02:16:00,
2013-02-24 21:22:00,65.2,64.0,29.98,ESE,106,0.0,0.0,96,0.00,,OVC250,0.22,VWS V14.01,2013-02-25 02:22:00,
2013-02-24 21:27:00,65.1,63.9,29.98,ESE,106,0.0,0.0,96,0.00,,OVC250,0.22,VWS V14.01,2013-02-25 02:27:00,
2013-02-24 21:32:00,65.1,63.9,29.97,ESE,106,0.0,0.0,96,0.00,,OVC250,0.22,VWS V14.01,2013-02-25 02:32:00,
2013-02-24 21:37:00,65.1,63.9,29.98,ESE,106,0.0,0.0,96,0.00,,OVC250,0.22,VWS V14.01,2013-02-25 02:37:00,
2013-02-24 21:42:00,65.0,63.8,29.97,ESE,106,0.0,0.0,96,0.00,,OVC250,0.22,VWS V14.01,2013-02-25 02:42:00,
2013-02-24 21:47:00,65.0,63.8,29.97,ESE,106,0.0,0.0,96,0.00,,OVC250,0.22,VWS V14.01,2013-02-25 02:47:00,
2013-02-24 21:52:00,65.0,63.8,29.97,ESE,106,0.0,0.0,96,0.00,,OVC250,0.22,VWS V14.01,2013-02-25 02:52:00,
2013-02-24 21:57:00,65.0,63.8,29.96,ESE,106,0.0,0.0,96,0.00,,OVC250,0.22,VWS V14.01,2013-02-25 02:57:00,
2013-02-24 22:03:00,65.0,63.8,29.97,ESE,106,0.0,0.0,96,0.00,,OVC250,0.22,VWS V14.01,2013-02-25 03:03:00,
2013-02-24 22:08:00,65.0,64.1,29.96,ESE,106,0.0,0.0,97,0.00,,OVC250,0.22,VWS V14.01,2013-02-25 03:08:00,
2013-02-24 22:13:00,65.0,63.8,29.97,ESE,106,0.0,0.0,96,0.00,,OVC250,0.22,VWS V14.01,2013-02-25 03:13:00,
2013-02-24 22:18:00,65.0,63.8,29.97,ESE,106,0.0,0.0,96,0.00,,OVC250,0.22,VWS V14.01,2013-02-25 03:18:00,
2013-02-24 22:23:00,65.0,63.8,29.96,ESE,106,0.0,0.0,96,0.00,,OVC250,0.22,VWS V14.01,2013-02-25 03:23:00,
2013-02-24 22:28:00,65.0,63.8,29.96,ESE,106,0.0,0.0,96,0.00,,OVC250,0.22,VWS V14.01,2013-02-25 03:28:00,
2013-02-24 22:33:00,64.9,63.7,29.96,ESE,106,0.0,0.0,96,0.00,,OVC250,0.22,VWS V14.01,2013-02-25 03:33:00,
2013-02-24 22:38:00,64.9,63.7,29.95,ESE,106,0.0,2.0,96,0.00,,OVC250,0.22,VWS V14.01,2013-02-25 03:38:00,
2013-02-24 22:43:00,64.9,63.7,29.95,ESE,106,0.0,2.0,96,0.00,,OVC250,0.22,VWS V14.01,2013-02-25 03:43:00,
2013-02-24 22:49:00,64.9,63.7,29.94,ESE,106,0.0,2.0,96,0.00,,OVC250,0.22,VWS V14.01,2013-02-25 03:49:00,
2013-02-24 22:54:00,64.9,63.7,29.94,ESE,106,0.0,0.0,96,0.00,,OVC250,0.22,VWS V14.01,2013-02-25 03:54:00,
2013-02-24 22:59:00,64.8,63.6,29.94,ESE,106,0.0,2.0,96,0.00,,OVC250,0.22,VWS V14.01,2013-02-25 03:59:00,
2013-02-24 23:04:00,64.8,63.6,29.94,ESE,106,0.0,0.0,96,0.00,,BKN250,0.22,VWS V14.01,2013-02-25 04:04:00,
2013-02-24 23:09:00,64.7,63.5,29.94,ESE,106,0.0,0.0,96,0.00,,BKN250,0.22,VWS V14.01,2013-02-25 04:09:00,
2013-02-24 23:14:00,64.6,63.4,29.95,ESE,106,0.0,0.0,96,0.00,,BKN250,0.22,VWS V14.01,2013-02-25 04:14:00,
2013-02-24 23:19:00,64.6,63.4,29.95,ESE,106,0.0,0.0,96,0.00,,BKN250,0.22,VWS V14.01,2013-02-25 04:19:00,
2013-02-24 23:25:00,64.6,63.4,29.95,ESE,106,0.0,0.0,96,0.00,,BKN250,0.22,VWS V14.01,2013-02-25 04:25:00,
2013-02-24 23:30:00,64.6,63.4,29.95,ESE,106,0.0,0.0,96,0.00,,BKN250,0.22,VWS V14.01,2013-02-25 04:30:00,
2013-02-24 23:35:00,64.6,63.4,29.95,ESE,106,0.0,0.0,96,0.00,,BKN250,0.22,VWS V14.01,2013-02-25 04:35:00,
2013-02-24 23:40:00,64.6,63.4,29.95,ESE,106,0.0,0.0,96,0.00,,BKN250,0.22,VWS V14.01,2013-02-25 04:40:00,
2013-02-24 23:45:00,64.5,63.3,29.95,ESE,106,0.0,0.0,96,0.00,,BKN250,0.22,VWS V14.01,2013-02-25 04:45:00,
2013-02-24 23:50:00,64.6,63.7,29.95,ESE,106,0.0,0.0,97,0.00,,BKN250,0.22,VWS V14.01,2013-02-25 04:50:00,
2013-02-24 23:55:00,64.5,63.6,29.95,ESE,106,0.0,0.0,97,0.00,,BKN250,0.22,VWS V14.01,2013-02-25 04:55:00,